Wetbulb
67.06 68.65 68.68 67.61 67.86 67.81 67.52 68.68 68.86 68.68 65.47 68.80 69.55 69.27 68.87 69.30 69.24 69.22 68.54 67.93 67.85 67.45 66.82 65.78 65.09 64.73 64.38 63.30 62.45 61.96 58.58 58.97
65.98 66.90 67.14 65.81 65.39 66.18 65.71 66.51 65.97 65.27 64.98 63.96 64.86 67.83 68.38 68.45 68.04 68.14 67.75 67.31 67.11 66.88 65.89 65.09 64.54 64.46 63.58 62.58 62.20 61.78 57.47 57.09
63.58 64.16 64.78 65.13 64.11 64.95 65.31 65.52 66.11 65.09 64.31 63.23 61.32 65.24 66.27 67.11 66.59 67.01 66.77 65.89 65.84 65.89 64.83 64.06 63.41 63.69 63.12 62.53 61.27 58.29 58.07 57.36
62.47 63.22 63.45 64.57 64.21 62.65 62.16 63.30 63.13 62.77 62.54 62.58 61.53 64.41 65.44 66.21 66.03 65.98 65.49 65.25 65.34 64.79 63.80 63.01 60.24 59.06 60.70 60.90 58.04 57.78 57.72 57.35
61.82 62.57 64.30 64.57 63.50 62.80 61.49 60.01 60.77 61.47 61.52 60.90 61.80 64.96 65.09 65.42 64.75 64.20 63.73 63.95 61.91 61.43 60.34 56.42 55.91 56.62 57.46 57.40 57.21 57.45 57.53 58.06
61.49 62.32 64.18 63.89 63.07 62.23 61.30 59.87 59.57 60.15 61.68 60.54 62.83 64.25 64.08 63.64 62.76 62.65 61.78 60.77 58.82 57.58 56.02 55.29 55.35 56.47 57.52 56.52 57.02 57.15 56.99 57.79
61.19 63.17 63.44 63.62 62.78 61.97 60.64 60.60 62.16 60.35 63.41 61.35 63.69 63.73 63.15 62.88 61.90 61.55 60.22 59.48 57.58 55.41 54.12 54.31 55.18 56.34 57.57 56.88 56.52 56.44 56.69 57.81
60.45 62.16 63.08 63.31 62.53 61.90 60.57 62.47 62.63 62.87 63.86 63.42 63.91 63.62 62.60 61.77 60.89 59.92 59.35 58.42 57.06 53.76 53.78 52.89 53.53 55.06 56.87 56.63 56.59 56.28 56.59 57.09
60.06 60.49 62.68 62.47 61.76 61.77 62.32 62.12 62.16 62.53 62.87 63.12 63.25 63.21 61.78 60.64 58.93 58.04 58.10 57.62 53.97 53.12 53.66 53.76 53.74 55.87 57.09 56.88 56.48 56.31 56.62 56.65
60.94 62.26 62.04 61.73 61.60 61.76 61.56 61.02 60.06 60.71 61.55 61.41 62.70 62.83 61.89 59.41 58.22 57.51 56.67 56.10 54.43 53.85 54.03 53.95 53.27 54.86 55.09 56.69 56.20 56.10 56.33 56.24
60.55 61.53 61.21 61.08 61.15 61.73 61.06 59.48 59.04 59.93 60.34 61.23 61.61 61.80 61.83 59.32 57.64 58.00 56.78 55.99 53.59 55.12 54.51 54.32 53.79 53.94 55.28 55.35 56.14 55.15 55.45 56.73
59.48 60.62 60.62 60.97 60.96 61.38 61.35 60.36 59.24 58.75 59.49 60.28 60.88 60.84 61.69 61.17 58.57 58.93 57.30 56.32 54.97 55.50 54.49 54.73 55.70 55.07 56.43 55.16 54.28 55.25 55.27 55.21
58.59 59.34 59.64 60.20 59.69 59.51 59.55 59.22 59.36 58.89 59.27 59.89 60.56 59.92 60.42 61.36 59.53 59.09 59.09 57.27 56.98 56.26 54.74 54.64 54.01 54.54 52.89 51.38 51.35 53.24 54.47 54.72
56.97 58.97 59.28 59.44 59.51 59.34 58.97 59.25 59.08 59.61 59.08 59.16 60.26 59.47 59.28 59.96 60.26 58.72 59.16 58.00 56.16 55.41 54.93 52.89 53.76 54.45 52.40 50.60 48.18 49.11 50.96 52.79
56.67 58.07 58.33 58.40 58.55 58.56 57.52 58.19 57.88 57.42 57.78 58.08 59.51 58.78 58.63 58.45 59.75 57.79 58.27 57.92 56.49 54.70 54.39 54.12 53.03 52.78 53.57 51.17 46.30 46.69 46.84 48.49
56.75 57.31 57.65 57.92 58.29 57.76 57.09 55.91 55.28 56.74 57.22 58.05 58.97 58.26 57.63 57.66 58.08 57.30 56.92 57.75 56.68 56.00 54.91 53.15 53.46 53.37 51.45 52.65 51.51 50.03 46.58 44.88
56.59 57.05 57.50 57.76 57.91 57.65 57.02 56.17 56.55 56.80 57.38 57.29 57.82 57.48 56.92 56.75 56.96 57.32 56.19 56.98 57.23 56.55 54.96 53.43 53.81 53.31 51.62 50.65 50.12 51.02 51.09 48.90
56.13 56.21 56.80 57.42 57.50 57.55 56.70 56.00 55.73 55.39 55.75 55.22 55.99 56.13 55.91 56.20 56.57 56.69 56.61 56.39 56.87 56.58 55.76 54.17 54.15 54.06 53.87 51.91 50.65 49.60 50.07 49.99
55.82 55.68 56.04 57.15 57.06 56.99 56.57 55.49 54.95 54.65 54.59 55.33 55.39 55.05 55.15 55.50 56.26 56.31 56.24 56.47 56.64 57.43 56.10 54.50 54.26 55.16 54.90 53.16 53.94 52.89 53.42 52.43
55.74 55.48 55.74 56.53 57.08 56.66 56.46 55.88 54.29 53.96 54.59 55.16 54.84 55.72 55.89 56.52 56.25 56.67 56.94 56.71 56.12 56.29 57.20 56.87 56.11 55.65 55.36 55.78 55.97 55.51 55.47 54.37
MSLP
1008.66 1008.84 1009.14 1009.31 1009.15 1009.37 1009.96 1009.43 1010.30 1011.75 1013.06 1012.63 1013.06 1012.95 1013.22 1014.16 1014.47 1014.95 1015.95 1016.50 1017.29 1017.59 1018.02 1018.16 1018.50 1018.89 1019.30 1019.49 1020.15 1020.45 1020.83 1021.19
1008.72 1008.82 1009.26 1009.45 1009.43 1009.73 1010.38 1010.77 1010.95 1012.36 1013.37 1013.43 1014.19 1013.97 1013.99 1014.25 1014.77 1014.87 1015.96 1016.69 1017.43 1017.70 1018.21 1018.58 1018.67 1019.03 1019.44 1019.92 1020.53 1020.89 1021.36 1021.53
1008.85 1009.03 1009.40 1009.65 1009.79 1010.14 1010.75 1011.16 1011.75 1012.21 1012.76 1013.44 1014.72 1015.25 1014.56 1014.76 1015.34 1015.50 1015.88 1016.89 1017.53 1017.97 1018.29 1018.79 1018.93 1019.44 1019.82 1020.42 1021.01 1021.51 1021.42 1021.77
1008.99 1009.20 1009.56 1009.92 1010.00 1010.38 1010.76 1011.15 1011.57 1011.25 1012.24 1013.16 1014.56 1014.97 1015.09 1015.21 1015.92 1016.10 1016.47 1016.88 1017.70 1018.06 1018.41 1018.93 1019.31 1019.86 1020.47 1020.80 1021.35 1021.50 1021.47 1022.18
1009.09 1009.29 1009.52 1009.82 1010.18 1010.58 1010.99 1011.30 1011.57 1012.00 1012.17 1012.79 1013.99 1014.71 1015.32 1015.73 1016.31 1016.70 1016.81 1017.05 1017.76 1018.14 1018.56 1019.16 1019.51 1020.24 1020.57 1021.01 1021.42 1021.49 1021.69 1022.46
1009.11 1009.52 1009.67 1009.89 1010.13 1010.56 1011.05 1011.26 1011.54 1011.98 1012.42 1013.01 1013.26 1013.17 1014.79 1015.63 1016.22 1016.52 1016.52 1017.33 1018.03 1018.28 1018.79 1019.00 1019.72 1020.19 1020.32 1020.98 1021.31 1021.65 1022.09 1022.56
1008.85 1009.38 1009.86 1009.98 1010.22 1010.69 1011.05 1011.31 1011.35 1011.81 1011.96 1012.66 1012.85 1013.37 1014.53 1015.50 1016.25 1016.44 1016.92 1017.44 1017.93 1018.50 1018.71 1018.99 1019.57 1020.09 1020.30 1020.65 1021.43 1021.92 1022.34 1022.62
1008.69 1009.17 1009.77 1009.99 1010.20 1010.65 1011.09 1011.34 1011.35 1011.48 1011.75 1011.91 1012.32 1012.98 1014.22 1015.36 1015.85 1016.39 1017.02 1017.17 1017.78 1018.46 1018.69 1019.01 1019.39 1020.00 1020.36 1020.65 1021.36 1022.00 1022.56 1022.78
1008.65 1009.13 1009.63 1009.97 1010.27 1010.68 1011.21 1011.30 1011.42 1011.40 1011.47 1011.90 1012.49 1013.17 1014.12 1015.16 1015.75 1016.30 1016.63 1017.34 1017.83 1018.44 1018.76 1018.97 1019.33 1019.99 1020.35 1020.85 1021.49 1022.13 1022.39 1022.93
1008.52 1008.99 1009.58 1010.00 1010.31 1010.75 1010.98 1011.36 1011.73 1011.84 1012.06 1012.24 1012.73 1013.35 1013.99 1014.71 1015.40 1016.07 1016.84 1017.28 1017.34 1018.24 1018.96 1019.14 1019.39 1019.97 1020.56 1021.04 1021.67 1022.24 1022.41 1022.90
1008.42 1008.86 1009.46 1009.93 1010.42 1010.72 1011.06 1011.47 1012.05 1012.33 1012.59 1012.77 1013.15 1013.61 1014.02 1014.42 1015.12 1015.65 1016.20 1016.75 1017.48 1018.23 1018.79 1019.11 1019.43 1020.07 1020.63 1021.21 1021.66 1022.29 1022.60 1022.81
1008.14 1008.80 1009.34 1009.85 1010.40 1010.78 1011.18 1011.73 1012.24 1012.37 1012.68 1012.86 1013.18 1013.44 1013.95 1014.46 1015.09 1015.54 1015.84 1016.84 1017.34 1018.08 1018.49 1019.08 1019.34 1019.86 1020.50 1021.34 1021.71 1022.20 1022.45 1022.76
1008.06 1008.66 1009.25 1009.67 1010.16 1010.58 1011.10 1011.45 1012.07 1012.51 1012.72 1012.80 1012.94 1013.23 1013.89 1014.49 1014.84 1015.17 1015.70 1016.48 1016.94 1017.62 1018.29 1018.68 1019.37 1019.63 1020.62 1021.97 1022.17 1022.22 1022.29 1022.53
1007.98 1008.43 1009.11 1009.60 1010.04 1010.51 1010.89 1011.17 1011.66 1012.05 1012.40 1012.63 1012.85 1013.40 1013.81 1014.21 1014.52 1015.01 1015.59 1016.22 1016.72 1017.13 1017.74 1018.60 1019.15 1019.26 1020.21 1021.35 1022.10 1022.56 1022.54 1022.59
1007.63 1008.09 1008.90 1009.53 1009.99 1010.48 1010.91 1011.23 1011.56 1011.83 1012.22 1012.56 1013.01 1013.41 1013.70 1013.73 1014.15 1014.78 1015.30 1016.03 1016.37 1016.94 1017.47 1017.81 1018.76 1019.38 1019.55 1020.59 1021.51 1021.79 1022.08 1022.17
1007.33 1007.77 1008.56 1009.33 1009.74 1010.26 1010.63 1010.75 1011.07 1011.42 1011.86 1012.22 1012.72 1013.39 1013.61 1013.54 1013.92 1014.51 1015.04 1015.64 1016.16 1016.68 1017.10 1017.27 1017.85 1019.08 1019.75 1019.78 1020.14 1020.96 1021.54 1022.09
1007.05 1007.55 1008.19 1009.07 1009.56 1009.82 1010.27 1010.50 1010.84 1011.02 1011.55 1012.09 1012.53 1013.33 1013.52 1013.56 1013.76 1014.40 1014.85 1015.52 1015.98 1016.25 1016.66 1017.00 1017.29 1018.52 1019.02 1019.65 1020.51 1020.70 1020.71 1021.29
1006.81 1007.19 1007.78 1008.50 1009.33 1009.65 1009.96 1010.38 1010.54 1010.95 1011.43 1011.91 1012.40 1013.09 1013.28 1013.65 1013.58 1014.19 1014.74 1015.54 1016.09 1016.66 1017.08 1016.73 1017.09 1017.67 1018.42 1018.62 1019.35 1019.97 1020.37 1020.78
1006.47 1006.84 1007.33 1007.90 1008.68 1009.43 1009.69 1010.03 1010.37 1010.63 1011.07 1011.43 1012.07 1012.62 1013.14 1013.41 1013.69 1014.43 1014.90 1015.12 1015.64 1015.96 1016.26 1016.40 1016.78 1017.38 1017.78 1017.76 1018.32 1018.87 1019.12 1019.67
1005.91 1006.42 1006.86 1007.44 1008.02 1008.74 1009.44 1009.83 1010.21 1010.51 1010.91 1011.15 1011.57 1011.89 1012.20 1012.75 1013.23 1013.54 1014.06 1014.33 1014.94 1015.60 1015.94 1016.15 1016.44 1016.85 1017.24 1017.37 1017.53 1017.97 1018.29 1018.58
Wind_Speed
6 6 6 8 7 14 11 14 21 14 17 14 15 21 23 20 21 22 20 18 16 15 16 17 14 16 23 22 19 17 11 8
7 6 4 6 7 17 19 21 15 18 16 13 9 13 18 19 21 24 22 18 14 16 16 15 15 23 23 21 19 17 9 7
4 5 6 7 8 12 19 23 22 18 16 18 1 7 11 16 14 20 22 17 13 14 16 14 17 22 22 22 16 7 9 6
4 6 7 8 6 8 7 10 9 12 12 14 4 5 7 10 14 19 19 18 12 12 13 14 13 9 9 13 6 9 8 7
6 6 8 9 7 5 3 3 4 5 11 16 11 9 9 8 7 7 9 13 6 7 6 5 8 6 8 7 8 8 7 6
6 6 8 8 6 6 6 4 3 3 7 12 11 8 11 8 8 8 7 5 5 5 3 6 7 6 11 10 9 8 5 5
8 8 7 8 8 6 7 6 5 6 8 11 10 12 10 9 8 7 7 6 5 5 5 4 6 7 9 10 9 8 7 5
8 9 7 7 7 7 5 5 6 6 7 13 15 13 11 9 9 8 8 8 6 4 5 5 4 5 9 10 10 8 7 7
8 8 8 8 8 7 5 6 4 5 7 10 12 12 12 11 9 8 8 7 9 5 4 4 4 4 9 8 8 8 8 7
6 7 9 8 8 6 5 6 4 3 6 8 9 12 14 11 10 9 9 8 8 6 4 4 4 5 4 7 7 6 8 8
9 7 9 9 8 7 6 7 6 5 5 8 10 12 13 10 9 8 11 9 7 6 3 4 3 5 7 5 7 6 7 7
11 7 9 9 7 6 5 6 6 5 7 9 10 9 12 9 8 8 10 10 9 7 5 3 5 5 7 6 6 6 6 7
13 11 8 7 6 7 6 8 7 6 6 10 11 8 8 10 9 9 9 9 11 11 6 11 4 4 5 3 1 3 8 7
13 12 11 7 6 5 3 4 4 7 7 7 9 9 9 9 10 10 10 7 7 9 8 4 3 6 4 3 3 1 2 5
14 15 12 9 7 4 3 3 3 4 7 8 8 5 8 9 11 9 10 8 8 7 8 8 6 2 7 5 2 4 2 3
14 15 14 9 8 7 10 8 6 5 7 8 10 8 6 7 10 10 8 7 8 7 4 6 7 10 2 2 3 5 4 1
13 15 15 12 10 11 8 7 6 6 7 12 10 7 7 7 10 11 7 4 5 4 3 5 5 6 4 4 2 2 2 3
13 15 15 15 12 12 14 12 9 9 9 9 9 9 6 6 10 9 7 6 8 11 13 8 8 6 6 6 5 5 4 3
13 14 16 16 14 13 12 12 11 13 11 10 13 10 7 7 10 11 10 10 8 5 6 7 8 8 7 6 4 5 4 4
15 15 16 16 16 15 11 11 8 8 10 8 7 9 11 12 11 12 13 13 11 11 5 5 6 6 7 6 6 5 5 4
Wind_Direction
154 175 192 89 199 205 201 196 164 140 50 174 160 150 141 146 138 131 132 130 139 133 127 123 119 113 124 119 119 114 110 115
150 154 123 103 103 113 117 119 117 128 103 52 13 148 147 143 137 133 133 135 148 136 130 127 111 128 125 119 118 118 116 104
146 138 126 126 121 130 133 136 160 151 125 104 8 246 152 133 141 135 132 136 147 139 133 123 107 122 121 125 124 128 119 98
129 129 135 141 137 130 135 159 159 164 153 150 160 221 177 136 142 135 137 130 140 138 129 117 110 113 132 122 130 135 117 115
132 121 143 145 141 136 131 130 149 173 156 154 163 181 174 140 140 140 143 129 146 139 124 114 113 121 139 131 133 130 124 137
135 128 141 145 144 150 152 163 148 169 164 179 160 155 150 146 155 149 133 135 148 132 145 133 126 125 129 138 133 136 135 141
147 136 153 152 157 161 159 173 182 184 181 183 170 149 148 147 156 147 145 145 144 152 137 136 146 139 138 135 136 136 140 147
142 141 150 155 154 153 154 158 164 178 175 162 158 147 149 158 157 150 157 156 147 149 148 150 159 115 144 142 145 143 150 149
160 147 151 155 160 149 156 147 145 162 151 148 140 146 151 154 155 153 148 166 150 136 148 154 148 123 148 143 140 155 147 159
153 146 155 148 147 154 130 135 129 146 158 160 153 159 160 157 158 159 160 168 149 152 167 146 172 121 130 148 149 157 151 164
151 155 152 149 147 149 146 142 158 163 157 174 176 169 163 155 163 163 160 158 159 171 162 152 166 130 142 139 143 154 164 165
145 144 152 159 153 154 153 160 170 167 179 181 175 163 163 160 163 162 160 168 167 177 160 164 165 158 138 146 152 166 164 177
150 154 162 158 164 164 171 171 179 183 189 191 171 159 159 172 173 168 165 171 177 178 160 165 158 153 106 99 65 170 177 186
156 158 168 171 171 174 155 158 182 193 183 189 178 177 186 177 172 179 178 169 164 170 165 139 136 167 138 112 152 113 230 215
160 158 160 172 167 140 113 129 132 165 180 175 175 190 189 180 180 169 175 167 173 167 171 158 158 153 164 150 115 212 133 175
157 157 158 166 165 171 185 199 180 190 183 177 177 193 200 174 166 160 148 162 166 175 170 162 133 177 94 185 106 159 182 260
161 157 159 165 172 176 180 182 183 163 173 173 171 183 197 181 159 162 143 138 166 182 158 168 145 151 158 134 179 195 116 132
163 161 162 163 172 174 178 181 182 167 164 162 169 188 182 174 161 162 166 166 171 191 202 175 168 177 194 154 170 171 186 152
168 167 167 166 170 180 183 177 179 179 174 173 174 184 189 188 172 175 180 187 200 194 202 182 186 192 195 189 176 194 161 169
174 174 170 171 172 179 186 179 183 181 189 183 177 188 191 193 187 186 186 183 184 189 187 198 186 195 204 196 197 202 182 173